DW8501 Madrid ES current weather conditions

sailwx.info

Wind from 207 at 2 knots gusting 6

Air temperature 24.4° C
Dewpoint 9.6° C

Last reported at 2014-Sep-21 17:55 UTC.
Time now 2014-Sep-21 18:12 UTC

Location: N 40°27' W 003°35'.
View on Google Maps.

See reports from other nearby stations

  
Tides and Currents Weather Stations Pressure Air Temp Water Temp Dewpoint Dewpoint Depression Visibility Wind Speed Wind Dir Waves Ship Positions
date/time (UTC)wind fromknots sea level pressurealtimeterstation pressurevisibilityair tempwater tempwave heightnotes
2014-Sep-21 17:55 207 2 gusting 6 24.4
2014-Sep-21 17:50 214 3 gusting 6 24.4
2014-Sep-21 17:45 217 5 gusting 9 24.4
2014-Sep-21 17:40 220 4 gusting 9 24.4
2014-Sep-21 17:35 222 6 gusting 11 24.4
2014-Sep-21 17:30 231 5 gusting 11 24.4
2014-Sep-21 17:25 239 6 gusting 9 24.4
2014-Sep-21 17:20 234 4 gusting 11 24.4
2014-Sep-21 17:15 229 4 gusting 11 24.4
2014-Sep-21 17:10 247 6 gusting 8 24.4
2014-Sep-21 17:05 262 5 gusting 13 24.4
2014-Sep-21 17:00 255 6 gusting 13 24.4
2014-Sep-21 16:55 270 8 gusting 13 24.4
2014-Sep-21 16:50 291 11 gusting 13 24.4
2014-Sep-21 16:45 275 8 gusting 13 25.0
2014-Sep-21 16:40 248 6 gusting 18 25.0
2014-Sep-21 16:35 236 9 gusting 18 25.0
2014-Sep-21 16:30 234 8 gusting 19 25.0
2014-Sep-21 16:25 237 11 gusting 19 25.0
2014-Sep-21 16:20 230 8 gusting 14 25.0
2014-Sep-21 16:15 225 7 gusting 14 25.6
2014-Sep-21 16:10 225 9 gusting 14 25.0
2014-Sep-21 16:05 227 10 gusting 16 25.0
2014-Sep-21 16:00 237 10 gusting 16 25.0
2014-Sep-21 15:55 238 13 gusting 16 25.0
2014-Sep-21 15:50 232 9 gusting 15 25.0
2014-Sep-21 15:45 239 13 gusting 15 25.6
2014-Sep-21 15:40 228 12 gusting 15 25.6
2014-Sep-21 15:35 220 13 gusting 15 25.6
2014-Sep-21 15:30 231 6 gusting 16 25.6
2014-Sep-21 15:25 232 7 gusting 16 26.1
2014-Sep-21 15:20 237 10 gusting 13 26.7
2014-Sep-21 15:15 221 3 gusting 11 26.7
2014-Sep-21 15:10 226 2 gusting 13 26.7
2014-Sep-21 15:05 242 6 gusting 13 26.1
2014-Sep-21 15:00 242 4 gusting 13 26.7
2014-Sep-21 14:55 219 7 gusting 13 26.7
2014-Sep-21 14:50 179 6 gusting 13 27.8
2014-Sep-21 14:45 203 4 gusting 13 27.2
2014-Sep-21 14:40 234 6 gusting 11 27.2
2014-Sep-21 14:35 247 8 gusting 11 27.2
2014-Sep-21 14:30 268 7 gusting 12 27.8
2014-Sep-21 14:25 265 6 gusting 13 27.2
2014-Sep-21 14:20 216 7 gusting 13 27.8
2014-Sep-21 14:15 217 3 gusting 12 27.2
2014-Sep-21 14:10 201 4 gusting 12 26.7
2014-Sep-21 14:05 177 3 gusting 10 27.2
2014-Sep-21 14:00 169 3 gusting 10 27.2
2014-Sep-21 13:55 192 3 gusting 12 26.7
2014-Sep-21 13:50 216 3 gusting 12 26.1
2014-Sep-21 13:45 222 8 gusting 12 26.1
2014-Sep-21 13:40 226 3 gusting 13 26.1
2014-Sep-21 13:35 242 3 gusting 13 26.1
2014-Sep-21 13:30 239 6 gusting 14 26.7
2014-Sep-21 13:25 225 10 gusting 14 27.8
2014-Sep-21 13:20 252 3 gusting 11 27.2
2014-Sep-21 13:15 256 2 gusting 11 26.1
2014-Sep-21 13:10 255 6 gusting 9 26.1
2014-Sep-21 13:05 225 4 gusting 6 26.7
2014-Sep-21 13:00 165 1 gusting 7 27.2
2014-Sep-21 12:55 187 3 gusting 9 26.7
2014-Sep-21 12:50 243 5 gusting 9 26.1
2014-Sep-21 12:45 221 3 gusting 9 26.1
2014-Sep-21 12:40 188 1 gusting 13 26.7
2014-Sep-21 12:35 221 3 gusting 13 25.6
2014-Sep-21 12:30 238 9 gusting 13 25.6
2014-Sep-21 12:25 230 3 gusting 10 25.6
2014-Sep-21 12:20 191 6 gusting 9 26.1
2014-Sep-21 12:15 215 1 gusting 8 25.6
2014-Sep-21 12:10 222 3 gusting 8 25.6
2014-Sep-21 12:05 210 3 gusting 7 25.6
2014-Sep-21 12:00 217 4 gusting 9 26.1
2014-Sep-21 11:55 187 4 gusting 9 26.1
2014-Sep-21 11:50 138 1 gusting 9 26.1
2014-Sep-21 11:45 175 2 gusting 9 26.1
2014-Sep-21 11:40 195 3 gusting 9 25.6
2014-Sep-21 11:35 171 2 gusting 6 25.6
2014-Sep-21 11:30 195 5 gusting 6 25.6
2014-Sep-21 11:25 231 1 gusting 7 25.6
2014-Sep-21 11:20 254 3 gusting 7 25.6
2014-Sep-21 11:15 266 5 gusting 8 25.0
2014-Sep-21 11:10 248 4 gusting 8 25.6
2014-Sep-21 11:05 241 1 gusting 5 26.7
2014-Sep-21 11:00 082 1 gusting 3 26.7
2014-Sep-21 10:55 110 2 gusting 3 26.1
2014-Sep-21 10:50 154 1 gusting 3 25.6
2014-Sep-21 10:45 123 1 gusting 4 25.0
2014-Sep-21 10:40 095 2 gusting 6 25.0
2014-Sep-21 10:35 108 1 gusting 6 24.4
2014-Sep-21 10:30 132 3 gusting 6 25.0
2014-Sep-21 10:25 142 2 gusting 6 25.6
2014-Sep-21 10:20 144 0 gusting 6 25.0
2014-Sep-21 10:15 097 2 gusting 6 24.4
2014-Sep-21 10:10 083 2 gusting 6 24.4
2014-Sep-21 10:05 111 1 gusting 6 24.4
2014-Sep-21 10:00 093 3 gusting 6 23.9
2014-Sep-21 09:55 060 1 gusting 6 24.4
2014-Sep-21 09:50 036 0 gusting 6 23.9
2014-Sep-21 09:45 012 1 gusting 6 22.8
2014-Sep-21 09:40 029 3 gusting 6 22.8
2014-Sep-21 09:35 077 0 gusting 6 22.2
2014-Sep-21 09:30 088 4 gusting 6 21.7
2014-Sep-21 09:25 079 1 gusting 6 21.7
2014-Sep-21 09:20 078 2 gusting 6 21.1
2014-Sep-21 09:15 083 3 gusting 7 20.6
2014-Sep-21 09:10 063 5 gusting 7 20.6
2014-Sep-21 09:05 052 6 gusting 7 20.6
2014-Sep-21 09:00 064 4 gusting 7 20.0
2014-Sep-21 08:55 056 4 gusting 9 19.4
2014-Sep-21 08:50 045 5 gusting 9 19.4
2014-Sep-21 08:45 041 4 gusting 9 19.4
2014-Sep-21 08:40 046 5 gusting 9 20.0
2014-Sep-21 08:35 053 6 gusting 9 20.0
2014-Sep-21 08:30 057 3 gusting 7 20.0
2014-Sep-21 08:25 055 3 gusting 7 19.4
2014-Sep-21 08:20 048 5 gusting 6 19.4
2014-Sep-21 08:15 059 4 gusting 6 18.9
2014-Sep-21 08:10 069 6 gusting 6 18.9
2014-Sep-21 08:05 062 3 gusting 6 18.9
2014-Sep-21 08:00 054 3 gusting 6 18.3
2014-Sep-21 07:55 049 3 gusting 6 18.3
2014-Sep-21 07:50 060 5 gusting 6 18.3
2014-Sep-21 07:45 072 3 gusting 6 18.3
2014-Sep-21 07:40 058 3 gusting 6 18.3
2014-Sep-21 07:35 048 3 gusting 6 17.8
2014-Sep-21 07:30 047 3 gusting 6 17.8
2014-Sep-21 07:25 048 6 gusting 9 17.2
2014-Sep-21 07:20 050 5 gusting 9 17.2
2014-Sep-21 07:15 050 7 gusting 9 17.2
2014-Sep-21 07:10 049 5 gusting 8 16.7
2014-Sep-21 07:05 055 4 gusting 8 16.7
2014-Sep-21 07:00 054 6 gusting 8 16.1
2014-Sep-21 06:55 050 4 gusting 9 16.1
2014-Sep-21 06:50 049 6 gusting 9 16.1
2014-Sep-21 06:45 050 5 gusting 8 16.1
2014-Sep-21 06:40 053 5 gusting 8 15.6
2014-Sep-21 06:35 049 6 gusting 7 15.6
2014-Sep-21 06:30 047 5 gusting 6 15.6
2014-Sep-21 06:25 046 4 gusting 7 15.6
2014-Sep-21 06:20 044 5 gusting 8 15.6
2014-Sep-21 06:15 047 3 gusting 8 15.6
2014-Sep-21 06:10 037 6 gusting 11 15.6
2014-Sep-21 06:05 031 6 gusting 11 15.6
2014-Sep-21 06:00 035 9 gusting 11 15.6
2014-Sep-21 05:55 036 6 gusting 8 15.6
2014-Sep-21 05:50 035 6 gusting 8 15.6
2014-Sep-21 05:45 035 6 gusting 7 15.6
2014-Sep-21 05:40 035 3 gusting 6 15.6
2014-Sep-21 05:35 036 3 gusting 6 15.6
2014-Sep-21 05:30 035 3 gusting 6 16.1
2014-Sep-21 05:25 032 5 gusting 6 16.1
2014-Sep-21 05:20 034 5 gusting 7 16.1
2014-Sep-21 05:15 038 3 gusting 7 16.1
2014-Sep-21 05:10 043 5 gusting 6 16.1
2014-Sep-21 05:05 046 3 gusting 6 16.1
2014-Sep-21 05:00 046 4 gusting 7 16.1
2014-Sep-21 04:55 045 5 gusting 8 16.1
2014-Sep-21 04:50 045 6 gusting 8 16.1
2014-Sep-21 04:45 045 6 gusting 8 16.1
2014-Sep-21 04:40 042 6 gusting 8 16.1
2014-Sep-21 04:35 042 7 gusting 8 16.1
2014-Sep-21 04:30 051 6 gusting 6 16.1
2014-Sep-21 04:25 053 4 gusting 7 16.1
2014-Sep-21 04:20 046 5 gusting 7 16.1
2014-Sep-21 04:15 044 4 gusting 6 16.1
2014-Sep-21 04:10 042 3 gusting 6 16.1
2014-Sep-21 04:05 040 4 gusting 6 16.1
2014-Sep-21 04:00 048 3 gusting 6 16.1
2014-Sep-21 03:55 047 3 gusting 7 16.1
2014-Sep-21 03:50 043 4 gusting 7 16.7
2014-Sep-21 03:45 044 4 gusting 8 16.7
2014-Sep-21 03:40 040 6 gusting 8 16.7
2014-Sep-21 03:35 041 6 gusting 8 16.7
2014-Sep-21 03:30 046 3 gusting 7 16.7
2014-Sep-21 03:25 047 5 gusting 7 16.7
2014-Sep-21 03:20 047 6 gusting 7 16.7
2014-Sep-21 03:15 042 6 gusting 7 16.7
2014-Sep-21 03:10 042 4 gusting 6 16.7
2014-Sep-21 03:05 044 5 gusting 6 16.7
2014-Sep-21 03:00 049 3 gusting 6 16.7
2014-Sep-21 02:55 051 4 gusting 6 16.7
2014-Sep-21 02:50 042 6 gusting 6 16.7
2014-Sep-21 02:45 039 5 gusting 6 16.7
2014-Sep-21 02:40 040 3 gusting 6 16.7
2014-Sep-21 02:35 039 4 gusting 6 16.7
2014-Sep-21 02:30 042 3 gusting 6 16.7
2014-Sep-21 02:25 043 4 gusting 6 16.7
2014-Sep-21 02:20 040 4 gusting 6 16.7
2014-Sep-21 02:15 042 4 gusting 6 16.7
2014-Sep-21 02:10 046 3 gusting 6 17.2
2014-Sep-21 02:05 046 6 gusting 6 17.2
2014-Sep-21 02:00 047 3 gusting 4 17.2
2014-Sep-21 01:55 049 3 gusting 5 17.2
2014-Sep-21 01:50 045 1 gusting 6 17.2
2014-Sep-21 01:45 043 2 gusting 6 17.2
2014-Sep-21 01:40 035 1 gusting 3 17.2
2014-Sep-21 01:35 006 1 gusting 3 17.2
2014-Sep-21 01:30 345 1 gusting 3 16.7
2014-Sep-21 01:25 339 1 gusting 3 17.2
2014-Sep-21 01:20 346 2 gusting 3 17.2
2014-Sep-21 01:15 340 1 gusting 3 16.7
2014-Sep-21 01:10 335 1 gusting 3 16.7
2014-Sep-21 01:05 338 1 gusting 3 16.7
2014-Sep-21 01:00 337 1 gusting 3 16.7
2014-Sep-21 00:55 341 1 gusting 3 17.2
2014-Sep-21 00:50 348 1 gusting 3 17.2
2014-Sep-21 00:45 350 2 gusting 3 17.2
2014-Sep-21 00:40 329 2 gusting 3 17.2
2014-Sep-21 00:35 341 0 gusting 3 17.2
2014-Sep-21 00:30 012 3 gusting 3 17.8
2014-Sep-21 00:25 010 1 gusting 3 17.8
2014-Sep-21 00:20 350 2 gusting 3 17.8
2014-Sep-21 00:15 358 1 gusting 3 17.8
2014-Sep-21 00:10 036 1 gusting 5 17.8
2014-Sep-21 00:05 042 2 gusting 5 17.8
2014-Sep-21 00:00 045 3 gusting 4 17.8
2014-Sep-20 23:55 045 1 gusting 4 17.8
2014-Sep-20 23:50 047 2 gusting 6 17.8
2014-Sep-20 23:45 043 2 gusting 6 17.8
2014-Sep-20 23:40 031 4 gusting 5 17.8
2014-Sep-20 23:35 022 3 gusting 5 17.8
2014-Sep-20 23:30 031 1 gusting 5 17.8
2014-Sep-20 23:25 041 2 gusting 5 18.3
2014-Sep-20 23:20 034 3 gusting 6 18.3
2014-Sep-20 23:15 025 1 gusting 6 18.3
2014-Sep-20 23:10 025 2 gusting 5 18.3
2014-Sep-20 23:05 025 3 gusting 5 18.3
2014-Sep-20 23:00 028 1 gusting 4 18.3
2014-Sep-20 22:55 043 2 gusting 5 18.9
2014-Sep-20 22:50 045 2 gusting 6 18.9
2014-Sep-20 22:45 040 5 gusting 6 18.9
2014-Sep-20 22:40 040 1 gusting 4 18.9
2014-Sep-20 22:35 045 3 gusting 4 18.9
2014-Sep-20 22:30 054 2 gusting 6 18.9
2014-Sep-20 22:25 044 2 gusting 6 18.9
2014-Sep-20 22:20 030 4 gusting 6 19.4
2014-Sep-20 22:15 037 4 gusting 6 19.4
2014-Sep-20 22:10 051 4 gusting 6 19.4
2014-Sep-20 22:05 056 3 gusting 5 19.4
2014-Sep-20 22:00 054 3 gusting 5 19.4
2014-Sep-20 21:55 052 3 gusting 4 19.4
2014-Sep-20 21:50 038 2 gusting 3 19.4
2014-Sep-20 21:45 038 1 gusting 3 19.4
2014-Sep-20 21:40 044 2 gusting 3 19.4
2014-Sep-20 21:35 030 2 gusting 3 19.4
2014-Sep-20 21:30 19.4
2014-Sep-20 21:25 20.0
2014-Sep-20 21:20 043 1 gusting 3 20.0
2014-Sep-20 21:15 045 1 gusting 3 20.0
2014-Sep-20 21:10 048 1 gusting 3 20.0
2014-Sep-20 21:05 055 3 gusting 3 19.4
2014-Sep-20 21:00 062 1 gusting 2 19.4
2014-Sep-20 20:55 060 1 gusting 1 19.4
2014-Sep-20 20:50 053 0 gusting 1 20.0
2014-Sep-20 20:45 009 0 gusting 2 20.6
2014-Sep-20 20:40 315 0 gusting 2 20.6
2014-Sep-20 20:35 273 0 gusting 3 20.6
2014-Sep-20 20:30 270 1 gusting 3 20.6
2014-Sep-20 20:25 273 1 gusting 1 20.6
2014-Sep-20 20:20 276 0 gusting 1 20.6
2014-Sep-20 20:15 20.6
2014-Sep-20 20:10 20.6
2014-Sep-20 20:05 21.1
2014-Sep-20 20:00 269 0 gusting 1 21.1
2014-Sep-20 19:55 269 1 gusting 1 21.1
2014-Sep-20 19:50 270 0 gusting 1 21.1
2014-Sep-20 19:45 278 0 gusting 1 21.1
2014-Sep-20 19:40 303 0 gusting 2 21.1
2014-Sep-20 19:35 317 0 gusting 2 21.1
2014-Sep-20 19:30 325 1 gusting 2 21.1
2014-Sep-20 19:25 306 1 gusting 2 21.1
2014-Sep-20 19:20 21.1
2014-Sep-20 19:15 230 0 gusting 1 21.7
2014-Sep-20 19:10 236 0 gusting 1 21.7
2014-Sep-20 19:05 21.7
2014-Sep-20 19:00 274 1 gusting 2 21.7
2014-Sep-20 18:55 278 1 gusting 3 22.2
2014-Sep-20 18:50 266 1 gusting 4 22.2
2014-Sep-20 18:45 244 2 gusting 4 22.2
2014-Sep-20 18:40 239 3 gusting 5 22.2
2014-Sep-20 18:35 245 3 gusting 5 22.2
2014-Sep-20 18:30 247 3 gusting 5 22.2
2014-Sep-20 18:25 256 3 gusting 6 22.8
2014-Sep-20 18:20 257 3 gusting 6 22.8
2014-Sep-20 18:15 260 3 gusting 6 22.8
2014-Sep-20 18:10 272 3 gusting 5 23.3
2014-Sep-20 18:05 273 1 gusting 6 23.3
2014-Sep-20 18:00 278 2 gusting 8 23.9
2014-Sep-20 17:55 280 3 gusting 8 23.3
2014-Sep-20 17:50 258 5 gusting 8 23.9
2014-Sep-20 17:45 251 5 gusting 7 23.9
2014-Sep-20 17:40 281 4 gusting 6 24.4
2014-Sep-20 17:35 305 4 gusting 6 24.4
2014-Sep-20 17:30 289 1 gusting 6 25.0
2014-Sep-20 17:25 280 3 gusting 9 24.4
2014-Sep-20 17:20 279 3 gusting 9 24.4
2014-Sep-20 17:15 271 6 gusting 9 24.4
2014-Sep-20 17:10 280 6 gusting 7 25.6
2014-Sep-20 17:05 261 0 gusting 9 25.0
2014-Sep-20 17:00 250 4 gusting 9 24.4
2014-Sep-20 16:55 259 6 gusting 13 24.4
2014-Sep-20 16:50 274 8 gusting 13 24.4
2014-Sep-20 16:45 279 4 gusting 15 24.4
2014-Sep-20 16:40 288 8 gusting 15 24.4
2014-Sep-20 16:35 289 11 gusting 14 24.4
2014-Sep-20 16:30 254 4 gusting 9 25.0
2014-Sep-20 16:25 243 5 gusting 10 24.4
2014-Sep-20 16:20 261 7 gusting 10 24.4
2014-Sep-20 16:15 290 5 gusting 12 25.0
2014-Sep-20 16:10 289 6 gusting 12 24.4
2014-Sep-20 16:05 273 4 gusting 12 25.0
2014-Sep-20 16:00 281 1 gusting 13 25.6
2014-Sep-20 15:55 266 5 gusting 13 25.0
2014-Sep-20 15:50 227 2 gusting 10 25.6
2014-Sep-20 15:45 240 8 gusting 11 25.0
2014-Sep-20 15:40 233 5 gusting 11 24.4
2014-Sep-20 15:35 247 8 gusting 11 25.0
2014-Sep-20 15:30 264 6 gusting 13 25.0
2014-Sep-20 15:25 260 6 gusting 13 25.6
2014-Sep-20 15:20 265 2 gusting 6 26.1
2014-Sep-20 15:15 258 3 gusting 6 25.6
2014-Sep-20 15:10 220 3 gusting 6 25.0
2014-Sep-20 15:05 205 4 gusting 9 24.4
2014-Sep-20 15:00 221 3 gusting 9 24.4
2014-Sep-20 14:55 230 5 gusting 13 23.9
2014-Sep-20 14:50 242 6 gusting 13 23.9
2014-Sep-20 14:45 267 5 gusting 10 24.4
2014-Sep-20 14:40 290 2 gusting 9 23.9
2014-Sep-20 14:35 289 5 gusting 13 23.9
2014-Sep-20 14:30 267 6 gusting 14 23.3
2014-Sep-20 14:25 249 6 gusting 14 24.4
2014-Sep-20 14:20 350 1 gusting 6 26.1
2014-Sep-20 14:15 295 2 gusting 6 25.0
2014-Sep-20 14:10 283 1 gusting 7 23.3
2014-Sep-20 14:05 274 6 gusting 13 23.9
2014-Sep-20 14:00 277 3 gusting 13 23.3
2014-Sep-20 13:55 283 6 gusting 11 23.9
2014-Sep-20 13:50 271 6 gusting 11 23.9
2014-Sep-20 13:45 235 4 gusting 7 25.0
2014-Sep-20 13:40 226 0 gusting 8 24.4
2014-Sep-20 13:35 253 1 gusting 11 23.3
2014-Sep-20 13:30 261 3 gusting 12 22.8
2014-Sep-20 13:25 267 9 gusting 12 23.3
2014-Sep-20 13:20 280 9 gusting 10 23.9
2014-Sep-20 13:15 276 3 gusting 9 22.8
2014-Sep-20 13:10 292 5 gusting 11 22.2
2014-Sep-20 13:05 305 6 gusting 11 22.8
2014-Sep-20 13:00 303 4 gusting 9 23.3
2014-Sep-20 12:55 277 2 gusting 12 22.2
2014-Sep-20 12:50 263 6 gusting 12 23.3
2014-Sep-20 12:45 280 4 gusting 7 23.3
2014-Sep-20 12:40 280 1 gusting 11 23.3
2014-Sep-20 12:35 285 3 gusting 11 22.8
2014-Sep-20 12:30 280 1 gusting 9 22.8
2014-Sep-20 12:25 291 4 gusting 13 21.7
2014-Sep-20 12:20 278 6 gusting 13 21.1
2014-Sep-20 12:15 233 5 gusting 9 21.7
2014-Sep-20 12:10 233 6 gusting 10 21.7
2014-Sep-20 12:05 269 6 gusting 11 21.7
2014-Sep-20 12:00 253 6 gusting 11 22.2
2014-Sep-20 11:55 259 1 gusting 12 21.7
2014-Sep-20 11:50 261 8 gusting 12 21.7
2014-Sep-20 11:45 245 6 gusting 12 22.2
2014-Sep-20 11:40 269 6 gusting 11 22.8
2014-Sep-20 11:35 270 5 gusting 13 22.2
2014-Sep-20 11:30 267 8 gusting 13 22.2
2014-Sep-20 11:25 264 6 gusting 11 21.7
2014-Sep-20 11:20 254 6 gusting 11 21.7
2014-Sep-20 11:15 239 6 gusting 14 22.2
2014-Sep-20 11:10 207 5 gusting 14 22.8
2014-Sep-20 11:05 174 0 gusting 9 23.3
2014-Sep-20 11:00 197 3 gusting 6 22.8
2014-Sep-20 10:55 215 2 gusting 6 22.2
2014-Sep-20 10:50 252 1 gusting 6 21.7
2014-Sep-20 10:45 278 3 gusting 8 20.6
2014-Sep-20 10:40 290 3 gusting 9 20.6
2014-Sep-20 10:35 278 6 gusting 9 20.6
2014-Sep-20 10:30 226 4 gusting 7 21.7
2014-Sep-20 10:25 246 3 gusting 6 21.1
2014-Sep-20 10:20 246 3 gusting 9 21.1
2014-Sep-20 10:15 218 4 gusting 9 21.1
2014-Sep-20 10:10 174 2 gusting 7 22.2
2014-Sep-20 10:05 143 3 gusting 7 21.7
2014-Sep-20 10:00 109 5 gusting 7 21.7
2014-Sep-20 09:55 094 0 gusting 6 21.1
2014-Sep-20 09:50 072 1 gusting 6 20.6
2014-Sep-20 09:45 058 2 gusting 6 21.1
2014-Sep-20 09:40 085 0 gusting 6 21.1
2014-Sep-20 09:35 090 1 gusting 6 21.1
2014-Sep-20 09:30 109 3 gusting 6 21.7
2014-Sep-20 09:25 113 1 gusting 3 21.1
2014-Sep-20 09:20 098 1 gusting 3 21.1
2014-Sep-20 09:15 097 1 gusting 3 20.6
2014-Sep-20 09:10 069 1 gusting 3 20.6
2014-Sep-20 09:05 065 1 gusting 4 19.4
2014-Sep-20 09:00 071 1 gusting 6 18.9
2014-Sep-20 08:55 090 1 gusting 6 18.3
2014-Sep-20 08:50 107 3 gusting 6 18.3
2014-Sep-20 08:45 074 2 gusting 6 17.8
2014-Sep-20 08:40 058 3 gusting 6 17.8
2014-Sep-20 08:35 073 3 gusting 6 17.8
2014-Sep-20 08:30 065 2 gusting 6 17.2
2014-Sep-20 08:25 068 3 gusting 6 16.7
2014-Sep-20 08:20 100 3 gusting 6 16.7
2014-Sep-20 08:15 117 3 gusting 4 16.7
2014-Sep-20 08:10 112 1 gusting 4 17.2
2014-Sep-20 08:05 111 2 gusting 6 17.2
2014-Sep-20 08:00 098 2 gusting 6 16.7
2014-Sep-20 07:55 090 2 gusting 4 16.7
2014-Sep-20 07:50 089 3 gusting 4 16.7
2014-Sep-20 07:45 075 2 gusting 3 16.7
2014-Sep-20 07:40 062 1 gusting 3 16.1
2014-Sep-20 07:35 045 1 gusting 3 16.1
2014-Sep-20 07:30 046 1 gusting 3 15.6
2014-Sep-20 07:25 046 1 gusting 3 15.0
2014-Sep-20 07:20 045 1 gusting 4 15.0
2014-Sep-20 07:15 045 2 gusting 4 14.4
2014-Sep-20 07:10 046 3 gusting 4 14.4
2014-Sep-20 07:05 047 3 gusting 4 15.0
2014-Sep-20 07:00 047 1 gusting 3 15.0
2014-Sep-20 06:55 045 2 gusting 3 14.4
2014-Sep-20 06:50 050 1 gusting 3 13.9
2014-Sep-20 06:45 046 1 gusting 3 13.9
2014-Sep-20 06:40 042 2 gusting 3 13.9
2014-Sep-20 06:35 044 1 gusting 3 13.3
2014-Sep-20 06:30 009 1 gusting 3 13.3
2014-Sep-20 06:25 349 0 gusting 3 13.3
2014-Sep-20 06:20 022 1 gusting 3 13.3
2014-Sep-20 06:15 044 2 gusting 5 13.3
2014-Sep-20 06:10 043 2 gusting 5 13.3
2014-Sep-20 06:05 046 4 gusting 5 13.3
2014-Sep-20 06:00 047 3 gusting 3 13.3
2014-Sep-20 05:55 037 1 gusting 3 13.3
2014-Sep-20 05:50 013 1 gusting 3 13.3
2014-Sep-20 05:45 353 2 gusting 4 13.3
2014-Sep-20 05:40 349 2 gusting 4 13.3
2014-Sep-20 05:35 357 3 gusting 4 13.3
2014-Sep-20 05:30 347 1 gusting 3 13.3
2014-Sep-20 05:25 336 1 gusting 4 13.3
2014-Sep-20 05:20 004 1 gusting 4 13.3
2014-Sep-20 05:15 032 2 gusting 3 13.3
2014-Sep-20 05:10 045 2 gusting 3 13.9
2014-Sep-20 05:05 045 1 gusting 3 13.9
2014-Sep-20 05:00 048 1 gusting 4 13.9
2014-Sep-20 04:55 049 1 gusting 4 13.9
2014-Sep-20 04:50 049 2 gusting 4 13.9
2014-Sep-20 04:45 048 3 gusting 4 13.9
2014-Sep-20 04:40 046 3 gusting 3 13.9
2014-Sep-20 04:35 054 2 gusting 3 13.9
2014-Sep-20 04:30 13.9
2014-Sep-20 04:25 13.9
2014-Sep-20 04:20 055 1 gusting 2 14.4
2014-Sep-20 04:15 048 1 gusting 2 14.4
2014-Sep-20 04:10 035 1 gusting 2 14.4
2014-Sep-20 04:05 030 0 gusting 3 14.4
2014-Sep-20 04:00 036 1 gusting 3 14.4
2014-Sep-20 03:55 14.4
2014-Sep-20 03:50 13.9
2014-Sep-20 03:45 13.9
2014-Sep-20 03:40 074 0 gusting 2 13.9
2014-Sep-20 03:35 056 1 gusting 3 13.9
2014-Sep-20 03:30 045 1 gusting 3 14.4
2014-Sep-20 03:25 046 1 gusting 4 14.4
2014-Sep-20 03:20 055 1 gusting 4 14.4
2014-Sep-20 03:15 071 2 gusting 5 14.4
2014-Sep-20 03:10 076 1 gusting 5 14.4
2014-Sep-20 03:05 061 1 gusting 5 14.4
2014-Sep-20 03:00 053 3 gusting 5 14.4
2014-Sep-20 02:55 068 1 gusting 4 14.4
2014-Sep-20 02:50 078 4 gusting 4 14.4
2014-Sep-20 02:45 081 3 gusting 4 14.4
2014-Sep-20 02:40 096 1 gusting 4 14.4
2014-Sep-20 02:35 105 2 gusting 3 14.4
2014-Sep-20 02:30 14.4
2014-Sep-20 02:25 14.4
2014-Sep-20 02:20 136 1 gusting 2 14.4
2014-Sep-20 02:15 192 0 gusting 1 14.4
2014-Sep-20 02:10 14.4
2014-Sep-20 02:05 14.4
2014-Sep-20 02:00 14.4
2014-Sep-20 01:55 14.4
2014-Sep-20 01:50 14.4
2014-Sep-20 01:45 13.9
2014-Sep-20 01:40 14.4
2014-Sep-20 01:35 14.4
2014-Sep-20 01:30 14.4
2014-Sep-20 01:25 14.4
2014-Sep-20 01:20 14.4
2014-Sep-20 01:15 052 1 gusting 2 14.4
2014-Sep-20 01:10 032 1 gusting 2 14.4
2014-Sep-20 01:05 14.4
2014-Sep-20 01:00 14.4
2014-Sep-20 00:55 14.4
2014-Sep-20 00:50 001 0 gusting 2 14.4
2014-Sep-20 00:45 14.4
2014-Sep-20 00:40 15.0
2014-Sep-20 00:35 15.0
2014-Sep-20 00:30 033 1 gusting 2 15.0
2014-Sep-20 00:25 15.0
2014-Sep-20 00:20 15.6
2014-Sep-20 00:15 040 2 gusting 3 15.6
2014-Sep-20 00:10 053 2 gusting 4 15.6
2014-Sep-20 00:05 083 1 gusting 4 15.6
2014-Sep-20 00:00 090 3 gusting 4 15.6
2014-Sep-19 23:55 105 0 gusting 2 15.6
2014-Sep-19 23:50 091 1 gusting 2 15.6
2014-Sep-19 23:45 053 0 gusting 2 15.6
2014-Sep-19 23:40 057 1 gusting 2 15.6
2014-Sep-19 23:35 077 1 gusting 3 15.6
2014-Sep-19 23:30 092 0 gusting 3 15.6
2014-Sep-19 23:25 098 1 gusting 3 15.6
2014-Sep-19 23:20 100 1 gusting 3 16.1
2014-Sep-19 23:15 105 0 gusting 1 16.1
2014-Sep-19 23:10 096 1 gusting 1 16.1
2014-Sep-19 23:05 16.1
2014-Sep-19 23:00 16.1
2014-Sep-19 22:55 174 0 gusting 1 16.1
2014-Sep-19 22:50 184 1 gusting 1 16.1
2014-Sep-19 22:45 16.7
2014-Sep-19 22:40 16.7
2014-Sep-19 22:35 16.7
2014-Sep-19 22:30 201 0 gusting 1 16.7
2014-Sep-19 22:25 16.7
2014-Sep-19 22:20 16.7
2014-Sep-19 22:15 16.7
2014-Sep-19 22:10 16.7
2014-Sep-19 22:05 16.7
2014-Sep-19 22:00 151 0 gusting 3 17.2
2014-Sep-19 21:55 17.2
2014-Sep-19 21:50 116 1 gusting 3 17.2
2014-Sep-19 21:45 095 1 gusting 3 17.2
2014-Sep-19 21:40 098 1 gusting 4 17.2
2014-Sep-19 21:35 096 2 gusting 5 17.2
2014-Sep-19 21:30 111 2 gusting 5 17.2
2014-Sep-19 21:25 124 3 gusting 4 17.2
2014-Sep-19 21:20 093 2 gusting 3 17.2
2014-Sep-19 21:15 047 1 gusting 1 17.2
2014-Sep-19 21:10 17.2
2014-Sep-19 21:05 17.2
2014-Sep-19 21:00 17.2
2014-Sep-19 20:55 17.2
2014-Sep-19 20:50 196 0 gusting 1 17.2
2014-Sep-19 20:45 199 0 gusting 2 17.2
2014-Sep-19 20:40 206 1 gusting 2 17.8
2014-Sep-19 20:35 204 0 gusting 1 17.8
2014-Sep-19 20:30 183 1 gusting 1 17.8
2014-Sep-19 20:25 17.2
2014-Sep-19 20:20 17.2
2014-Sep-19 20:15 17.8
2014-Sep-19 20:10 17.8
2014-Sep-19 20:05 042 0 gusting 1 17.8
2014-Sep-19 20:00 045 0 gusting 1 17.8
2014-Sep-19 19:55 068 0 gusting 2 17.8
2014-Sep-19 19:50 080 1 gusting 3 18.3
2014-Sep-19 19:45 030 0 gusting 3 18.3
2014-Sep-19 19:40 010 2 gusting 3 18.3
2014-Sep-19 19:35 008 2 gusting 3 18.3
2014-Sep-19 19:30 026 1 gusting 3 18.3
2014-Sep-19 19:25 18.3
2014-Sep-19 19:20 18.3
2014-Sep-19 19:15 323 1 gusting 4 18.3
2014-Sep-19 19:10 276 1 gusting 4 18.3
2014-Sep-19 19:05 231 1 gusting 3 18.3
2014-Sep-19 19:00 213 2 gusting 3 18.9
2014-Sep-19 18:55 230 1 gusting 3 18.9
2014-Sep-19 18:50 256 1 gusting 2 18.9
2014-Sep-19 18:45 271 1 gusting 2 18.9
2014-Sep-19 18:40 262 0 gusting 3 18.9
2014-Sep-19 18:35 258 1 gusting 3 18.9
2014-Sep-19 18:30 268 1 gusting 3 18.9
2014-Sep-19 18:25 274 1 gusting 5 18.9
2014-Sep-19 18:20 262 2 gusting 6 18.9
2014-Sep-19 18:15 266 3 gusting 6 19.4
2014-Sep-19 18:10 265 3 gusting 7 19.4
2014-Sep-19 18:05 259 3 gusting 7 19.4
2014-Sep-19 18:00 282 3 gusting 6 19.4